Roaring Spring, PA

6:32 PM EDT on July 23, 2016 (GMT -0400)
Pleasant View | | Change Station

Elev 1178 ft 40.41 °N, 78.42 °W | Updated 7 minutes ago

Scattered Clouds
Scattered Clouds
93.8 °F
Feels Like 94 °F
N
2.0
Wind Variable Wind from WNW
Gusts 13.0 mph

Today
High -- | Low -- °F
--% Chance of Precip.
Yesterday
High -- | Low -- °F
Precip. -- in
Pressure 29.92 in
Visibility 10.0 miles
Clouds Scattered Clouds 6500 ft
Heat Index 94 °F
Dew Point 61 °F
Humidity 33%
Rainfall 0.00 in
Snow Depth Not available.
6:03 AM 8:36 PM
Waning Gibbous, 82% visible
METAR KAOO 232153Z AUTO 31009KT 10SM SCT065 33/15 A2996 RMK AO2 SLP132 T03280150
Pressure 29.92 in
Visibility 10.0 miles
Clouds Scattered Clouds 6500 ft
Heat Index 94 °F
Dew Point 61 °F
Humidity 33%
Rainfall 0.00 in
Snow Depth Not available.
6:03 AM 8:36 PM
Waning Gibbous, 82% visible
METAR KAOO 232153Z AUTO 31009KT 10SM SCT065 33/15 A2996 RMK AO2 SLP132 T03280150

10-Day Weather Forecast

Almanac

Astronomy

Jul. 23, 2016 Rise Set
Actual Time
Civil Twilight
Nautical Twilight
Astronomical Twilight
Moon
Length of Visible Light
Length of Day
Tomorrow will be .
, % of the Moon is Illuminated

Today's Extremes

State Highs State Lows

Community

WunderPhotos

Upload Photos

1,926,946 photos uploaded!

WunderBlog® & News

Nearby

Air Quality

  Air Quality AQ Index Pollutant
Not available.

Snow Depth

Station Depth Elevation

Earthquake Activity

City Distance Mag. Time & Date
Minimum magnitude displayed is 2.5.

Coastal Water Temperatures

Place Temperature

Stations

Nearby Weather Stations

Station Location Temp. Windchill Dew Point Humidity Wind Precip. Elev Updated Type
                   

Watches & Warnings

There are currently no watches in effect.